Retour au catalogue

CTC-1C

ActifCommunicationsSSO
NORAD 66750·PAYLOAD·🇺🇸 United States
Ce nom de satellite n'a pas encore été confirmé par des sources officielles.

Lancé Nov 28, 2025 depuis Vandenberg Space Force Base

Loading…

Prochains Passages (prochaines 24 heures)

TLE

FraisSource: Space-Track

Époque: Sep 14, 2026, 03:43 UTC

1 66750U 25276CN  26257.15509489  .00003114  00000-0  14590-3 0  9990
2 66750  97.4155 329.4400 0002184  36.7976 323.3409 15.20443769 43947

Suivez CTC-1C en temps réel avec AllMySat

Download on the App Store